TIANMU-1 03

Last updated on Thu Jul 03 2025 00:02:22 GMT+0000 (Coordinated Universal Time)

1 55973U 23039A 25183.57025939 .00008221 00000+0 23950-3 0 9999 2 55973 97.5025 342.5227 0002355 274.5311 85.5664 15.35656999126980
UTC large
Height (km)
Speed (km/s)
/
Latitude / Longitude
Inclination (degrees)
Orbital Period (minutes)
Azimuth
Elevation
Range (km)
Doppler Factor

Next 0 passes for location: London (51.5072 / 0.1276)

Sorry there are no passes over London.